Preview of NWS' New Version of Forecast
This preview is not operational and should not be used for support decisions.
Latest weather observations around

Prattville - Grouby Field (K1A9)

Using International System of Units (Switch to English Units)
Date/ Time (CDT) Wind (kph) Vis. (km) Weather Sky Cond. Temp (°C) Rel. Humidity Wind Chill (°C) Heat Index (°C) Pressure Precip. (cm)
Air Dwpt 6 hour Altimeter (hPa) Sea level (hPa) 1 hr 3 hr 6 hr
Max Min
Oct 15 18:15 Calm 16.09 Partly Cloudy SCT110 25 23     91%   26 1018.3        
Oct 15 17:55 Calm 16.09 Mostly Cloudy SCT095 BKN110 26 23     82%   29 1018        
Oct 15 17:35 Calm 16.09 Cloudy OVC095 28 22     73%   30 1018        
Oct 15 17:15 Calm 16.09 Cloudy SCT046 OVC095 27 22     75%   30 1018        
Oct 15 16:55 WNW 5 16.09 Cloudy BKN046 OVC090 28 23     74%   30 1018.3        
Oct 15 16:35 Calm 16.09 Mostly Cloudy SCT041 BKN048 BKN100 28 22     68%   30 1018        
Oct 15 16:15 Calm 16.09 Mostly Cloudy SCT033 SCT041 BKN100 28 22     68%   31 1018        
Oct 15 15:55 Calm 16.09 Cloudy SCT033 SCT045 OVC100 29 21     62%   32 1018        
Oct 15 15:35 Calm 16.09 Cloudy SCT034 BKN060 OVC080 29 21     65%   31 1018        
Oct 15 15:15 SSE 8 16.09 Mostly Cloudy SCT034 SCT060 BKN070 30 21     62%   32 1018        
Oct 15 14:55 Calm 16.09 Partly Cloudy SCT050 SCT060 SCT080 29 22     63%   32 1018        
Oct 15 14:35 Calm 16.09 Mostly Cloudy SCT032 SCT048 BKN060 28 21     65%   31 1018.3        
Oct 15 14:15 S 11 16.09 Cloudy BKN032 BKN040 OVC060 29 21     65%   31 1018.3        
Oct 15 13:55 W 13 16.09 Mostly Cloudy SCT030 BKN047 BKN055 29 22     64%   32 1018.3        
Oct 15 13:35 SW 5 16.09 Cloudy SCT028 BKN036 OVC049 28 22     68%   30 1018.6        
Oct 15 13:15 SSW 11 16.09 Cloudy BKN028 BKN036 OVC045 29 22     66%   31 1019        
Oct 15 12:55 SSW 5 16.09 Cloudy SCT026 BKN032 OVC047 28 22     69%   30 1019        
Oct 15 12:35 SSW 9 16.09 Cloudy BKN024 OVC032 28 22     68%   30 1019        
Oct 15 12:15 WSW 5 16.09 Cloudy BKN024 BKN030 OVC065 27 22     73%   29 1019.3        
Oct 15 11:55 Calm 16.09 Mostly Cloudy SCT022 BKN028 BKN060 27 22     75%   28 1019.7        
Oct 15 11:35 S 8 16.09 Mostly Cloudy BKN022 BKN028 27 22     74%   29 1019.7        
Oct 15 11:15 Calm 16.09 Mostly Cloudy BKN021 BKN028 26 21     76%   26 1020        
Oct 15 10:55 S 5 16.09 Mostly Cloudy BKN021 BKN028 26 21     75%   27 1020.3        
Oct 15 10:35 Calm 16.09 Mostly Cloudy BKN025 25 21     77%   26 1020        
Oct 15 10:15 Calm 16.09 Partly Cloudy SCT010 SCT018 SCT025 24 20     79%   25 1020        
Oct 15 09:55 S 8 16.09 Mostly Cloudy BKN010 BKN021 24 20     79%   24 1020        
Oct 15 09:35 SE 8 16.09 Cloudy BKN010 OVC019 22 19     84%   22 1020        
Oct 15 09:15 SE 5 16.09 Mostly Cloudy BKN010 22 19     84%   23 1020        
Oct 15 08:55 ESE 5 16.09 Mostly Cloudy BKN012 BKN029 22 19     87%   22 1019.7        
Oct 15 08:35 Calm 16.09 Cloudy BKN013 BKN018 OVC025 20 18     89%     1019.7        
Oct 15 08:15 Calm 16.09 Mostly Cloudy BKN015 BKN021 BKN028 19 18     90%     1019.7        
Oct 15 07:55 Calm 16.09 Cloudy OVC015 18 18     100%     1019.7        
Oct 15 07:35 Calm 16.09 Cloudy OVC015 18 18     100%     1019.3        
Oct 15 07:15 Calm 16.09 Cloudy OVC015 17 17     100%     1019        
Oct 15 06:55 Calm 16.09 Cloudy OVC017 17 17     100%     1018.6        
Oct 15 06:35 Calm 16.09 Partly Cloudy SCT017 SCT025 16 16     100%     1018.3        
Oct 15 06:15 Calm 16.09 Clear CLR 16 16     100%     1018.6        
Oct 15 05:55 Calm 16.09 Clear   16 16     100%     1018.3        
Oct 15 05:35 Calm 16.09 Clear CLR 16 16     100%     1018.3        
Oct 15 05:15 Calm 16.09 Clear CLR 16 16     100%     1018        
Oct 15 04:55 W 5 16.09 Clear CLR 16 16     100%     1018        
Oct 15 04:35 Calm 16.09 Clear CLR 16 16     100%     1018        
Oct 15 04:15 Calm 16.09 Clear CLR 17 17     100%     1018        
Oct 15 03:55 Calm 16.09 Clear CLR 17 17     100%     1017.6        
Oct 15 03:35 Calm 16.09 Clear CLR 17 17     100%     1017.6        
Oct 15 03:15 Calm 16.09 Clear CLR 17 17     100%     1018        
Oct 15 02:55 Calm 16.09 Clear CLR 17 17     100%     1018        
Oct 15 02:35 Calm 16.09 Clear CLR 17 17     100%     1018.3        
Oct 15 02:15 Calm 16.09 Clear CLR 17 17     100%     1018.3        
Oct 15 01:55 Calm 16.09 Clear CLR 17 17     100%     1018.3        
Oct 15 01:35 Calm 16.09 Clear CLR 17 17     100%     1018.3        
Oct 15 01:15 Calm 16.09 Clear CLR 17 17     100%     1018        
Oct 15 00:55 Calm 16.09 Clear CLR 17 17     100%     1018        
Oct 15 00:35 Calm 16.09 Clear   17 17     100%     1018        
Oct 15 00:15 Calm 16.09 Clear CLR 18 18     100%     1018        
Oct 14 23:55 WNW 5 16.09 Clear   18 18     100%     1018        
Oct 14 23:35 W 5 16.09 Clear CLR 18 18     100%     1018        
Oct 14 23:15 Calm 16.09 Clear CLR 18 18     100%     1018        
Oct 14 22:55 Calm 16.09 Clear CLR 18 18     100%     1018        
Oct 14 22:35 Calm 16.09 Clear CLR 18 18     100%     1018.3        
Oct 14 22:15 Calm 16.09 Clear CLR 18 18     100%     1018.3        
Oct 14 21:55 WNW 5 16.09 Clear CLR 19 19     100%     1018.3        
Oct 14 21:35 Calm 16.09 Clear CLR 19 19     100%     1018        
Oct 14 21:15 Calm 16.09 Clear CLR 19 19     100%     1018        
Oct 14 20:55 Calm 16.09 Clear CLR 19 19     99%     1017.6        
Oct 14 20:35 WNW 5 16.09 Clear CLR 19 19     99%     1017.3        
Oct 14 20:15 Calm 16.09 Clear CLR 20 20     100%     1017.3        
Oct 14 19:55 Calm 16.09 Clear CLR 20 20     98%     1016.9        
Oct 14 19:35 WNW 5 16.09 Clear CLR 20 20     97%     1016.9        
Oct 14 19:15 Calm 16.09 Clear CLR 21 20     92%     1016.9        
Oct 14 18:55 Calm 16.09 Clear CLR 22 20     88%   22 1016.6        
Oct 14 18:35 Calm 16.09 Clear CLR 22 19     85%   23 1016.6        
Oct 14 18:15 Calm 16.09 Clear CLR 24 19     75%   24 1016.3        
Oct 14 17:55 Calm 16.09 Partly Cloudy SCT110 26 19     65%   26 1016.3        
Oct 14 17:35 Calm 16.09 Partly Cloudy SCT110 28 16     50%   28 1016.3        
Oct 14 17:15 Calm 16.09 Partly Cloudy SCT110 29 16     46%   29 1015.9        
Oct 14 16:55 SE 5 16.09 Clear CLR 29 15     42%   29 1015.9        
Oct 14 16:35 SSE 8 16.09 Clear CLR 30 15     40%   29 1015.9        
Oct 14 16:15 Calm 16.09 Partly Cloudy SCT110 30 14     38%   29 1015.9        
Oct 14 15:55 S 8 16.09 Cloudy OVC110 30 15     41%   30 1015.9        
Oct 14 15:35 SE 11 16.09 Cloudy OVC110 30 15     39%   30 1016.3        
Oct 14 15:15 SE 8 16.09 Mostly Cloudy BKN110 30 15     39%   30 1016.3        
Oct 14 14:55 SSE 8 16.09 Clear CLR 30 15     42%   29 1015.9        
Oct 14 14:35 S 9 16.09 Clear CLR 30 16     43%   30 1015.9        
Oct 14 14:15 SE 8 16.09 Clear CLR 29 16     43%   29 1015.9        
Oct 14 13:55 SE 9 16.09 Clear CLR 29 16     46%   29 1015.9        
Oct 14 13:35 SSE 8 16.09 Clear CLR 29 16     47%   29 1016.3        
Oct 14 13:15 Calm 16.09 Clear CLR 28 17     50%   29 1016.6        
Oct 14 12:55 Calm 16.09 Clear CLR 28 17     51%   29 1016.9        
Oct 14 12:35 ESE 5 16.09 Clear CLR 28 17     53%   28 1017.3        
Oct 14 12:15 Calm 16.09 Clear CLR 27 17     54%   28 1017.6        
Oct 14 11:55 SW 5 16.09 Clear CLR 27 17     56%   27 1018        
Oct 14 11:35 SSE 8 16.09 Partly Cloudy SCT120 26 17     58%   26 1018        
Oct 14 11:15 SW 8 16.09 Mostly Cloudy BKN120 25 16     57%   25 1018        
Oct 14 10:55 SSE 5 16.09 Partly Cloudy SCT120 25 16     58%   25 1018        
Oct 14 10:35 SE 9 16.09 Partly Cloudy SCT120 24 16     60%   24 1018        
Oct 14 10:15 Calm 16.09 Partly Cloudy SCT100 24 17     65%   24 1018        
Oct 14 09:55 Calm 16.09 Mostly Cloudy BKN100 22 16     70%   22 1018        
Oct 14 09:35 SE 5 16.09 Partly Cloudy SCT100 21 16     71%   21 1018        
Oct 14 09:15 SE 5 16.09 Partly Cloudy SCT100 21 16     75%     1018        
Oct 14 08:55 Calm 16.09 Clear CLR 20 16     79%     1018        
Oct 14 08:35 Calm 16.09 Clear CLR 19 17     85%     1017.6        
Oct 14 08:15 Calm 16.09 Clear CLR 18 17     91%     1017.6        
Oct 14 07:55 Calm 16.09 Clear CLR 16 16     100%     1017.3        
Oct 14 07:35 Calm 16.09 Clear CLR 15 15     100%     1017.3        
Oct 14 07:15 Calm 16.09 Clear CLR 15 15     100%     1016.9        
Oct 14 06:55 Calm 16.09 Clear CLR 15 15     100%     1016.6        
Oct 14 06:35 Calm 16.09 Clear CLR 15 15     100%     1016.6        
Oct 14 06:15 Calm 16.09 Clear CLR 15 15     100%     1016.3        
Oct 14 05:55 Calm 16.09 Clear CLR 15 15     100%     1016.3        
Oct 14 05:35 Calm 16.09 Clear CLR 16 16     100%     1016.3        
Oct 14 05:15 Calm 16.09 Clear CLR 16 16     100%     1016.3        
Oct 14 04:55 Calm 16.09 Clear CLR 16 16     100%     1015.9        
Oct 14 04:35 Calm 16.09 Clear CLR 16 16     100%     1016.3        
Oct 14 04:15 Calm 16.09 Mostly Cloudy BKN100 16 16     100%     1015.6        
Oct 14 03:55 Calm 16.09 Mostly Cloudy BKN110 16 16     100%     1015.6        
Oct 14 03:35 Calm 16.09 Mostly Cloudy BKN110 16 16     100%     1015.6        
Oct 14 03:15 Calm 16.09 Mostly Cloudy BKN110 16 16     100%     1015.6        
Oct 14 02:55 Calm 16.09 Partly Cloudy SCT110 15 15     100%     1014.9        
Oct 14 02:35 Calm 16.09 Clear CLR 16 16     100%     1015.2        
Oct 14 02:15 Calm 16.09 Clear CLR 16 16     100%     1015.6        
Oct 14 01:55 Calm 16.09 Clear CLR 16 16     100%     1015.2        
Oct 14 01:35 Calm 16.09 Clear CLR 16 16     100%     1015.2        
Oct 14 01:15 Calm 16.09 Clear CLR 16 16     100%     1014.9        
Oct 14 00:55 WNW 5 16.09 Clear CLR 16 16     100%     1015.2        
Oct 14 00:35 Calm 16.09 Clear CLR 16 16     100%     1014.9        
Oct 14 00:15 Calm 16.09 Clear CLR 16 16     100%     1014.6        
Oct 13 23:55 Calm 16.09 Clear CLR 16 16     100%     1014.9        
Oct 13 23:35 Calm 16.09 Clear CLR 16 16     100%     1015.6        
Oct 13 23:15 Calm 16.09 Clear CLR 16 16     100%     1015.9        
Oct 13 22:55 Calm 16.09 Clear CLR 16 16     100%     1015.6        
Oct 13 22:35 Calm 16.09 Clear CLR 16 16     100%     1015.6        
Oct 13 22:15 Calm 16.09 Clear CLR 16 16     100%     1015.9        
Oct 13 21:55 Calm 16.09 Clear CLR 16 16     100%     1015.9        
Oct 13 21:35 Calm 16.09 Clear CLR 17 16     98%     1015.6        
Oct 13 21:15 Calm 16.09 Clear CLR 17 16     98%     1015.6        
Oct 13 20:55 WNW 8 16.09 Clear CLR 17 17     98%     1015.6        
Oct 13 20:35 WNW 5 16.09 Clear CLR 17 17     97%     1015.2        
Oct 13 20:15 NW 5 16.09 Clear CLR 17 17     100%     1014.9        
Oct 13 19:55 Calm 16.09 Clear CLR 18 17     97%     1014.9        
Oct 13 19:35 Calm 16.09 Clear CLR 18 17     94%     1014.6        
Oct 13 19:15 WNW 5 16.09 Clear CLR 19 17     93%     1014.2        
Oct 13 18:55 Calm 16.09 Clear CLR 19 17     88%     1013.9        
Oct 13 18:35 Calm 16.09 Clear CLR 20 17     84%     1013.6        
Oct 13 18:15 Calm 16.09 Clear CLR 21 17     77%     1013.2        
Oct 13 17:55 Calm 16.09 Clear CLR 23 15     59%   23 1013.2        
Oct 13 17:35 Calm 16.09 Clear CLR 24 14     52%   24 1013.2        
Oct 13 17:15 Calm 16.09 Clear CLR 25 13     46%   25 1013.2        
Oct 13 16:55 Calm 16.09 Clear CLR 26 13     45%   25 1013.6        
Oct 13 16:35 W 5 16.09 Clear CLR 26 13     44%   25 1013.6        
Oct 13 16:15 W 5 16.09 Clear CLR 26 13     44%   26 1013.6        
Oct 13 15:55 WSW 9 16.09 Clear CLR 26 13     44%   26 1013.6        
Oct 13 15:35 SSE 8 16.09 Clear CLR 26 13     45%   26 1013.6        
Oct 13 15:15 Calm 16.09 Clear CLR 25 13     45%   25 1013.6        
Oct 13 14:55 WNW 8 16.09 Clear CLR 25 13     46%   25 1013.6        
Oct 13 14:35 Calm 16.09 Clear CLR 25 13     45%   25 1013.9        
Oct 13 14:15 SSW 5 16.09 Clear CLR 26 13     46%   25 1014.2        
Oct 13 13:55 SSE 5 16.09 Clear CLR 25 13     47%   25 1014.2        
Oct 13 13:35 S 5 16.09 Clear CLR 25 13     48%   25 1014.6        
Oct 13 13:15 NE 5 16.09 Clear CLR 25 13     47%   25 1014.9        
Oct 13 12:55 S 5 16.09 Clear CLR 24 12     48%   24 1015.2        
Oct 13 12:35 WNW 5 16.09 Clear CLR 24 12     48%   23 1015.2        
Oct 13 12:15 Calm 16.09 Clear CLR 23 12     48%   23 1015.6        
Oct 13 11:55 Calm 16.09 Clear CLR 23 12     48%   23 1015.6        
Oct 13 11:35 Calm 16.09 Clear CLR 23 11     49%   22 1015.9        
Oct 13 11:15 Calm 16.09 Clear CLR 23 11     49%   22 1016.3        
Oct 13 10:55 NE 5 16.09 Clear CLR 22 11     49%   22 1016.3        
Oct 13 10:35 NW 5 16.09 Clear CLR 22 11     51%   21 1016.3        
Oct 13 10:15 Calm 16.09 Clear CLR 21 11     52%     1016.3        
Oct 13 09:55 Calm 16.09 Clear CLR 21 11     53%     1015.9        
Oct 13 09:35 NNE 5 16.09 Clear CLR 20 11     58%     1015.9        
Oct 13 09:15 Calm 16.09 Clear CLR 18 12     65%     1015.9        
Oct 13 08:55 Calm 16.09 Clear CLR 17 12     72%     1015.9        
Oct 13 07:35 Calm 16.09 Clear CLR 12 12     100%     1015.2        
Notice The following observation data may not be complete
Oct 13 07:15   16.09 Clear CLR          %              
Oct 13 06:15 Calm 16.09 Clear CLR 12 12     99%     1014.9        
Oct 13 05:35 Calm 16.09 Clear CLR 12 12     100%     1014.6        
Oct 13 05:15 Calm 16.09 Clear CLR 12 12     100%     1014.2        
Oct 13 04:35 Calm 16.09 Clear CLR 12 12     100%     1013.9        
Oct 13 04:15 Calm 16.09 Clear CLR 13 13     100%     1013.9        
Oct 13 03:35 Calm 16.09 Clear CLR 13 13     100%     1013.6        
Oct 13 03:15 Calm 16.09 Clear CLR 13 13     100%     1013.6        
Oct 13 02:35 Calm 16.09 Partly Cloudy SCT090 14 14     99%     1013.6        
Notice The following observation data may not be complete
Oct 13 01:15   16.09 Cloudy OVC090          %              
Oct 13 00:15 Calm 16.09 Cloudy OVC110 14 14     100%     1013.6        
Oct 12 23:15 Calm 16.09 Clear CLR 13 13     100%     1013.6        
Oct 12 22:35 Calm 16.09 Clear CLR 14 13     98%     1014.2        
Oct 12 22:15 Calm 16.09 Clear CLR 14 14     97%     1013.9        
Oct 12 21:55 Calm 16.09 Clear CLR 14 14     98%     1014.2        
Oct 12 21:35 Calm 16.09 Clear CLR 15 13     91%     1014.2        
Oct 12 20:55 W 5 16.09 Clear CLR 15 14     93%     1013.9        
Notice The following observation data may not be complete
Oct 12 20:15   16.09 Clear CLR          %              
Oct 12 19:35 WNW 5 16.09 Clear CLR 15 15     96%     1012.9        
Oct 12 19:15 Calm 16.09 Clear CLR 16 15     93%     1012.5        
Notice The following observation data may not be complete
Oct 12 18:55 WNW 5 16.09 Clear CLR   14      %     1012.5        
Notice The following observation data may not be complete
Oct 12 18:35 WNW 5 16.09 Clear CLR   14      %     1012.5        
Oct 12 18:15 W 8 16.09 Clear CLR 18 15     80%     1012.2        
Oct 12 16:55 NW 5 16.09 Clear CLR 24 10     41%   23 1012.2        
Oct 12 16:35 NNW 8 16.09 Clear CLR 24 9     39%   23 1012.2        
Notice The following observation data may not be complete
Oct 12 15:35   16.09 Clear CLR          %              
Oct 12 15:15 NNW 11 16.09 Clear CLR 24 9     37%   24 1012.5        
Notice The following observation data may not be complete
Oct 12 12:35   16.09 Clear CLR          %              
Oct 12 12:15 N 11 16.09 Clear CLR 21 9     47%     1015.2        
Oct 12 11:15 ENE 5 16.09 Clear CLR 19 8     50%     1015.6        
Oct 12 10:55 Calm 16.09 Clear CLR 18 8     53%     1015.9        
Oct 12 10:15 NE 8 16.09 Clear CLR 17 9     58%     1016.3        
Oct 12 09:35 N 5 16.09 Clear CLR 15 9     67%     1016.3        
Oct 12 07:55 WNW 5 16.09 Clear CLR 12 11     96%     1015.9        
Oct 12 06:55 Calm 16.09 Clear CLR 10 10     100%     1015.6        
Oct 12 06:15 WNW 5 16.09 Clear CLR 10 10     100%     1015.2        
Oct 12 04:35 Calm 16.09 Clear CLR 11 11     100%     1014.9        
Oct 12 00:55 NNW 5 16.09 Clear CLR 15 12     86%     1014.9        
Oct 11 23:20 NW 9 16.09 Clear CLR 16 13     80%     1014.9        
Notice The following observation data may not be complete
Oct 11 18:15   16.09 Clear CLR          %              
Notice The following observation data may not be complete
Oct 11 16:35   16.09 Clear CLR          %              
Notice The following observation data may not be complete
Oct 11 14:35   16.09 Clear CLR          %              
Oct 11 14:15 WNW 18 16.09 Partly Cloudy SCT040 27 17     55%   27 1011.2        
Oct 11 13:35 WNW 17 16.09 Clear CLR 26 16     55%   26 1011.5        
Oct 11 13:15 WNW 13 16.09 Clear CLR 26 17     58%   26 1011.5        
Oct 11 11:35 WNW 18 16.09 Mostly Cloudy BKN026 24 18     69%   24 1012.5        
Oct 11 11:15 WNW 11 16.09 Mostly Cloudy BKN026 24 18     70%   24 1012.5        
Oct 11 10:55 WNW 17 16.09 Mostly Cloudy BKN024 23 18     70%   24 1012.5        
Oct 11 09:55 NW 13 16.09 Cloudy OVC020 23 19     81%   23 1011.9        
Oct 11 09:35 NW 15 16.09 Cloudy OVC018 22 19     85%   22 1011.9        
Oct 11 07:55 WNW 13 16.09 Cloudy OVC016 22 21     95%   23 1009.8        
Oct 11 05:35 WNW 13 16.09 Cloudy OVC017 23 22     94%   24 1008.1        
Oct 11 04:55 W 15 16.09 Cloudy OVC015 23 22     95%   24 1007.1        
Oct 11 04:35 W 13 16.09 Cloudy OVC015 23 22     95%   24 1006.8        
Oct 11 04:15 W 15 16.09 Cloudy OVC013 23 22     96%   24 1006.4        
Oct 11 03:55 WNW 13 16.09 Cloudy OVC013 23 22     96%   24 1006.1        
Notice The following observation data may not be complete
Oct 11 01:15   16.09 Mostly Cloudy BKN012 BKN033          %              
Oct 11 00:35 WNW 15 16.09 Mostly Cloudy SCT020 BKN049 24 23     98%   25 1004.8        
Oct 10 23:35 WNW 17 16.09 Cloudy OVC018 24 24     98%   25 1004.8        
Oct 10 22:35 NW 15 16.09 Mostly Cloudy BKN020 24 24     99%   25 1004.4        
Oct 10 22:15 NW 15 16.09 Mostly Cloudy BKN018 24 24     99%   25 1004.1        
Oct 10 19:35 NW 17 16.09 Clear CLR 24 24     100%   25 1002.7        
Oct 10 16:55 N 13 16.09 Rain OVC012 24 24     100%   25 1002   0    
Oct 10 16:35 NNE 13 16.09 Rain SCT012 BKN036 OVC090 24 24     100%   25 1002.4   0    
Oct 10 16:15 N 13 16.09 Light Rain SCT011 SCT029 OVC080 24 24     100%   25 1002.4   0    
Notice The following observation data may not be complete
Oct 10 15:35   6.44 Rain SCT013 BKN070 OVC080          %         0    
Notice The following observation data may not be complete
Oct 10 14:35   11.27 Rain SCT050 BKN065 OVC075          %         0    
Oct 10 13:15 NNE 15 8.05 Rain SCT009 SCT047 OVC065 24 24     100%   25 1005.8   0    
Oct 10 11:35 NE 9 6.44 Rain SCT013 SCT036 OVC070 24 24     100%   25 1007.8   0    
Oct 10 09:55 ENE 9 16.09 Light Drizzle SCT017 BKN029 BKN034 25 24     93%   26 1008.1        
Oct 10 09:15 NE 9 16.09 Partly Cloudy SCT017 SCT100 25 23     92%   26 1008.5        
Notice The following observation data may not be complete
Oct 10 07:35   16.09 Mostly Cloudy SCT016 SCT065 BKN095          %              
Oct 10 07:15 NE 11 16.09 Mostly Cloudy BKN016 BKN095 24 23     94%   25 1008.1        
Oct 10 06:15 NE 13 16.09 Mostly Cloudy BKN016 24 23     93%   25 1008.5        
Notice The following observation data may not be complete
Oct 10 05:35   16.09 Mostly Cloudy BKN020 BKN031 BKN037          %              
Oct 10 04:55 ENE 9 16.09 Cloudy OVC016 24 23     92%   25 1008.5        
Oct 10 03:15 ENE 15 16.09 Cloudy BKN018 OVC031 24 23     91%   25 1009.2        
Oct 10 00:15 E 11 16.09 Cloudy OVC016 24 23     90%   25 1010.5        
Oct 09 22:15 E 11 16.09 Cloudy OVC014 24 22     90%   25 1010.8        
Notice The following observation data may not be complete
Oct 09 21:35   16.09 Cloudy OVC020          %              
Oct 09 21:15 E 15 16.09 Cloudy OVC022 25 21     80%   26 1010.8        
Oct 09 16:35 E 11 16.09 Mostly Cloudy BKN060 BKN080 28 21     63%   30 1011.5        
Notice The following observation data may not be complete
Oct 09 09:35   16.09 Cloudy OVC018          %              
Notice The following observation data may not be complete
Oct 09 08:15   16.09 Mostly Cloudy BKN016          %              
Notice The following observation data may not be complete
Oct 09 05:35   16.09 Partly Cloudy SCT018          %              
Oct 09 04:35 E 11 16.09 Mostly Cloudy BKN018 24 22     91%   24 1015.6        
Notice The following observation data may not be complete
Oct 09 03:15   16.09 Partly Cloudy SCT024          %              
Oct 09 01:55 Calm 16.09 Clear CLR 23 22     92%   24 1016.6        
Oct 09 00:15 E 9 16.09 Clear CLR 23 22     92%   24 1016.6        
Oct 08 23:35 Calm 16.09 Clear CLR 23 22     96%   24 1016.6        
Oct 08 23:15 ENE 5 16.09 Clear CLR 23 23     99%   24 1016.6        
Oct 08 22:55 Calm 16.09 Clear CLR 23 23     98%   24 1016.9        
Oct 08 22:35 Calm 16.09 Clear CLR 24 23     96%   24 1016.9        
Notice The following observation data may not be complete
Oct 08 19:35   16.09 Mostly Cloudy BKN085          %              
Oct 08 19:15 E 5 16.09 Cloudy OVC085 26 22     81%   26 1016.3        
Oct 08 18:15 E 9 16.09 Cloudy SCT070 OVC095 27 21     69%   29 1016.3        
Oct 08 17:15 E 8 16.09 Partly Cloudy SCT100 28 20     64%   30 1016.3        
Oct 08 16:35 E 11 16.09 Cloudy SCT070 BKN100 OVC120 29 20     60%   30 1016.6        
Oct 08 16:15 E 15 16.09 Mostly Cloudy SCT055 SCT070 BKN100 27 21     68%   29 1016.6        
Oct 08 15:35 E 15 16.09 Mostly Cloudy SCT050 BKN070 BKN075 29 20     56%   31 1016.6        
Notice The following observation data may not be complete
Oct 08 15:15   16.09 Mostly Cloudy SCT049 SCT055 BKN070          %              
Oct 08 12:55 ENE 21 16.09 Mostly Cloudy SCT036 BKN044 BKN055 29 21     61%   31 1018.3        
Oct 08 12:15 E 11 16.09 Mostly Cloudy SCT030 BKN035 BKN043 29 21     62%   31 1019        
Oct 08 11:55 E 17 16.09 Cloudy BKN030 BKN036 OVC044 28 21     65%   30 1019.3        
Oct 08 11:15 E 18 16.09 Clear   27 21     71%   29 1019.7        
Oct 08 10:55 ESE 21 16.09 Clear   27 22     73%   29 1019.7        
Notice The following observation data may not be complete
Oct 08 10:15   16.09 Cloudy OVC018          %              
Oct 08 08:55 E 13 16.09 Cloudy OVC012 24 23     92%   25 1019.7        
Oct 08 08:35 E 13 16.09 Cloudy OVC010 24 22     93%   24 1019.3        
Oct 08 06:35 ENE 5 16.09 Clear CLR 21 21     98%   22 1018.3        
Notice The following observation data may not be complete
Oct 08 05:35   16.09 Clear CLR          %              
Oct 08 04:55 Calm 16.09 Clear CLR 22 21     96%   23 1018        
Oct 08 04:15 Calm 16.09 Clear CLR 22 21     96%   22 1018        
Oct 08 03:55 ENE 5 16.09 Clear CLR 22 21     93%   23 1018        
Oct 08 02:15 ENE 8 16.09 Clear CLR 22 21     93%   23 1018.6        
Oct 08 01:15 Calm 16.09 Clear CLR 22 21     92%   23 1018.6        
Oct 08 00:15 Calm 16.09 Clear CLR 21 21     99%     1018.6        
Oct 07 23:55 Calm 16.09 Clear CLR 21 21     100%     1019        
Oct 07 23:15 Calm 16.09 Clear CLR 21 21     100%     1018.6        
Oct 07 20:35 Calm 16.09 Clear CLR 22 22     98%   23 1018.6        
Oct 07 19:35 WNW 5 16.09 Clear CLR 23 22     95%   24 1018        
Notice The following observation data may not be complete
Oct 07 18:55 W 5 16.09 Partly Cloudy SCT060   22      %     1018        
Notice The following observation data may not be complete
Oct 07 18:35 Calm 16.09 Partly Cloudy SCT060   22      %     1017.6        
Oct 07 18:15 Calm 16.09 Partly Cloudy SCT060 26 21     75%   28 1017.6        
Oct 07 17:15 E 5 16.09 Partly Cloudy SCT050 30 20     53%   32 1017.6        
Oct 07 16:55 E 9 16.09 Partly Cloudy SCT050 31 19     50%   32 1017.6        
Oct 07 16:15 E 13 16.09 Clear CLR 31 19     50%   32 1018        
Notice The following observation data may not be complete
Oct 07 15:35   16.09 Partly Cloudy SCT049          %              
Oct 07 15:15 ENE 13 16.09 Partly Cloudy SCT049 31 20     50%   33 1018.3        
Oct 07 13:35 E 15 16.09 Clear CLR 31 19     49%   32 1019.3        
Oct 07 13:15 E 15 16.09 Clear CLR 30 19     50%   31 1019.7        
Oct 07 12:55 ENE 18 16.09 Clear CLR 30 19     52%   32 1020        
Oct 07 12:35 E 13 16.09 Clear CLR 30 19     52%   32 1020.3        
Notice The following observation data may not be complete
Oct 07 12:15   16.09 Clear CLR          %              
Oct 07 11:15 ENE 8 16.09 Clear CLR 29 21     62%   31 1021        
Notice The following observation data may not be complete
Oct 07 10:55   16.09 Clear CLR          %              
Notice The following observation data may not be complete
Oct 07 10:35   16.09 Clear CLR          %              
Oct 07 10:15 Calm 16.09 Clear CLR 27 22     75%   28 1021.3        
Oct 07 09:15 E 5 16.09 Clear CLR 25 21     82%   25 1021.3        
Oct 07 06:55 Calm 16.09 Clear CLR 19 19     100%     1019.7        
Oct 07 05:35 Calm 16.09 Clear   19 19     100%     1019.3        
Oct 07 05:15 Calm 16.09 Clear   20 20     100%     1019        
Oct 07 04:55 Calm 16.09 Clear   20 20     100%     1018.6        
Oct 07 04:35 Calm 16.09 Partly Cloudy SCT065 20 20     100%     1018.6        
Oct 07 04:15 W 5 16.09 Partly Cloudy SCT065 20 20     100%     1018.6        
Oct 07 03:15 Calm 16.09 Clear CLR 20 20     100%     1018.3        
Oct 07 01:55 Calm 16.09 Clear CLR 20 20     100%     1018.6        
Oct 07 00:35 Calm 16.09 Clear CLR 21 21     100%     1018.6        
Oct 07 00:15 Calm 16.09 Partly Cloudy SCT060 21 21     100%     1018.6        
Oct 06 23:55 Calm 16.09 Partly Cloudy SCT060 21 21     100%     1018.6        
Oct 06 22:55 Calm 16.09 Partly Cloudy SCT065 21 21     100%   22 1019        
Notice The following observation data may not be complete
Oct 06 22:35   16.09 Partly Cloudy SCT065 SCT080          %              
Oct 06 22:15 Calm 16.09 Partly Cloudy SCT070 SCT080 22 22     100%   22 1019        
Oct 06 21:15 Calm 16.09 Clear CLR 22 22     99%   23 1019        
Oct 06 20:35 WNW 5 16.09 Clear CLR 22 22     98%   23 1018.3        
Oct 06 19:15 W 5 16.09 Clear CLR 24 23     91%   25 1017.6        
Oct 06 18:55 Calm 16.09 Clear CLR 25 23     91%   25 1017.6        
Oct 06 18:35 Calm 16.09 Clear CLR 25 23     88%   26 1017.3        
Notice The following observation data may not be complete
Oct 06 18:15 Calm 16.09 Clear CLR   23      %     1017.3        
Oct 06 17:35 Calm 16.09 Clear CLR 31 20     52%   32 1017.3        
Oct 06 16:55 Calm 16.09 Clear CLR 32 19     47%   33 1017.3        
Oct 06 16:35 Calm 16.09 Clear CLR 32 19     48%   34 1017.3        
Notice The following observation data may not be complete
Oct 06 16:15   16.09 Clear CLR          %              
Oct 06 15:55 Calm 16.09 Clear CLR 32 19     45%   33 1017.6        
Oct 06 15:35 Calm 16.09 Partly Cloudy SCT050 32 19     45%   33 1017.6        
Oct 06 15:15 Calm 16.09 Partly Cloudy SCT050 32 19     47%   34 1017.6        
Oct 06 14:55 S 8 16.09 Partly Cloudy SCT050 SCT080 32 20     48%   34 1018        
Oct 06 14:35 SSE 5 16.09 Partly Cloudy SCT050 SCT070 SCT080 32 20     48%   34 1018        
Oct 06 14:15 Calm 16.09 Clear CLR 32 20     47%   34 1018        
Oct 06 13:55 S 5 16.09 Partly Cloudy SCT050 SCT075 32 19     47%   34 1018.3        
Oct 06 13:35 S 8 16.09 Mostly Cloudy BKN050 32 20     48%   34 1018.6        
Oct 06 12:55 S 9 16.09 Mostly Cloudy BKN050 BKN065 BKN075 32 20     48%   33 1019        
Notice The following observation data may not be complete
Oct 06 12:35   16.09 Mostly Cloudy BKN050 BKN065 BKN075          %              
Notice The following observation data may not be complete
Oct 06 11:35   16.09 Clear CLR          %              
Oct 06 11:15 Calm 16.09 Clear CLR 30 20     53%   32 1020        
Oct 06 10:15 Calm 16.09 Clear CLR 29 21     63%   31 1020        
Oct 06 09:35 Calm 16.09 Clear CLR 27 23     79%   29 1020        
Oct 06 08:35 Calm 16.09 Clear CLR 23 22     94%   24 1019.7        
Oct 06 06:55 Calm 11.27 Mostly Cloudy BKN065 20 20     100%     1019        
Notice The following observation data may not be complete
Oct 06 06:35   16.09 Cloudy OVC065          %              
Oct 06 05:55 Calm 11.27 Partly Cloudy SCT065 20 20     100%     1018.3        
Oct 06 04:35 Calm 16.09 Clear CLR 20 20     100%     1017.6        
Oct 06 04:15 Calm 16.09 Clear CLR 20 20     100%     1017.6        
Oct 06 03:15 Calm 11.27 Partly Cloudy SCT060 21 21     100%     1017.3        
Oct 06 02:55 Calm 16.09 Mostly Cloudy BKN060 21 21     100%     1017.3        
Notice The following observation data may not be complete
Oct 06 01:35   16.09 Clear CLR          %              
Oct 06 00:15 Calm 16.09 Clear CLR 21 21     100%   22 1017.6        
Oct 05 23:55 Calm 16.09 Clear CLR 22 22     100%   22 1018        
Oct 05 22:55 Calm 16.09 Partly Cloudy SCT060 22 22     100%   23 1018        
Oct 05 22:35 Calm 16.09 Mostly Cloudy BKN060 23 23     100%   23 1018        
Oct 05 22:15 Calm 16.09 Partly Cloudy SCT060 22 22     98%   23 1018        
Oct 05 21:55 W 5 16.09 Clear CLR 22 22     99%   23 1018        
Oct 05 21:15 Calm 16.09 Clear CLR 22 22     99%   23 1018        
Notice The following observation data may not be complete
Oct 05 20:35   16.09 Clear CLR          %              
Oct 05 20:15 Calm 16.09 Clear CLR 23 23     100%   24 1017.6        
Oct 05 19:55 Calm 16.09 Clear CLR 24 24     98%   25 1017.3        
Notice The following observation data may not be complete
Oct 05 18:35   16.09 Partly Cloudy SCT060 SCT080          %              
Oct 05 18:15 Calm 16.09 Partly Cloudy SCT070 SCT080 27 24     80%   30 1016.9        
Oct 05 16:55 Calm 16.09 Partly Cloudy SCT070 32 19     46%   33 1016.3        
Oct 05 15:35 Calm 16.09 Clear CLR 32 19     46%   34 1016.3        
Oct 05 15:15 E 5 16.09 Clear CLR 32 19     45%   34 1016.3        
Notice The following observation data may not be complete
Oct 05 14:35   16.09 Clear CLR          %              
Oct 05 13:55 SE 8 16.09 Mostly Cloudy BKN050 32 20     47%   34 1017.3        
Oct 05 12:35 S 5 16.09 Clear CLR 31 21     53%   34 1018.6        
Oct 05 12:15 Calm 16.09 Clear CLR 31 20     52%   33 1018.6        
Oct 05 11:55 S 5 16.09 Partly Cloudy SCT036 31 21     55%   34 1019        
Oct 05 08:35 Calm 16.09 Clear CLR 24 23     91%   25 1019.7        
Oct 05 08:15 Calm 16.09 Clear CLR 22 22     98%   23 1019.7        
Oct 05 07:55 Calm 16.09 Clear CLR 21 21     100%   22 1019.7        
Oct 05 07:35 Calm 16.09 Clear CLR 20 20     100%     1019.7        
Oct 05 07:15 Calm 11.27 Clear CLR 20 20     100%     1019.7        
Oct 05 06:55 Calm 16.09 Clear CLR 20 20     100%     1019.7        
Oct 05 06:35 Calm 16.09 Clear CLR 20 20     100%     1019.3        
Oct 05 06:15 Calm 16.09 Clear CLR 20 20     100%     1019.3        
Oct 05 05:55 Calm 16.09 Clear CLR 20 20     100%     1019        
Oct 05 05:35 Calm 16.09 Clear CLR 20 20     100%     1018.6        
Oct 05 05:15 Calm 16.09 Clear CLR 20 20     100%     1018.6        
Oct 05 04:55 Calm 16.09 Clear CLR 20 20     100%     1018.6        
Oct 05 04:35 Calm 16.09 Clear CLR 20 20     100%     1018.3        
Oct 05 04:15 Calm 16.09 Clear CLR 20 20     100%     1018.3        
Oct 05 03:55 Calm 16.09 Clear CLR 20 20     100%     1018.3        
Oct 05 03:35 Calm 16.09 Clear CLR 20 20     100%     1018        
Oct 05 03:15 Calm 16.09 Clear CLR 21 21     100%     1018        
Oct 05 02:55 Calm 16.09 Clear CLR 21 21     100%     1018        
Oct 05 02:35 Calm 16.09 Clear CLR 21 21     100%     1018        
Oct 05 02:15 Calm 16.09 Clear CLR 21 21     100%     1018        
Oct 05 01:55 Calm 11.27 Clear CLR 21 21     100%     1018        
Oct 05 01:35 Calm 11.27 Clear CLR 21 21     100%     1018        
Oct 05 01:15 Calm 16.09 Clear CLR 21 21     100%     1017.6        
Oct 05 00:55 Calm 16.09 Clear CLR 21 21     100%   22 1017.6        
Oct 05 00:35 Calm 16.09 Clear CLR 21 21     100%   22 1017.6        
Oct 05 00:15 Calm 16.09 Clear CLR 21 21     100%   22 1017.6        
Oct 04 23:55 Calm 16.09 Clear CLR 22 22     100%   22 1017.6        
Oct 04 23:35 Calm 16.09 Clear CLR 22 22     100%   22 1018        
Oct 04 23:15 Calm 16.09 Clear CLR 22 22     100%   22 1018        
Oct 04 22:55 Calm 16.09 Clear CLR 22 22     100%   22 1018        
Oct 04 22:35 Calm 16.09 Clear CLR 22 22     100%   22 1018        
Oct 04 22:15 Calm 16.09 Clear CLR 22 22     100%   23 1018        
Oct 04 21:55 Calm 16.09 Clear CLR 22 22     100%   23 1018        
Oct 04 21:35 Calm 16.09 Clear CLR 22 22     99%   23 1018        
Oct 04 21:15 Calm 16.09 Clear CLR 22 22     99%   23 1018        
Oct 04 20:55 Calm 16.09 Clear CLR 23 23     99%   24 1018        
Oct 04 20:35 Calm 16.09 Clear CLR 23 23     99%   24 1018        
Oct 04 20:15 Calm 16.09 Clear CLR 23 23     99%   24 1017.6        
Oct 04 19:55 W 5 16.09 Clear CLR 24 23     98%   25 1017.3        
Oct 04 19:35 Calm 16.09 Clear CLR 24 24     97%   25 1017.3        
Oct 04 19:15 Calm 16.09 Clear CLR 24 24     96%   25 1017.3        
Oct 04 18:55 Calm 16.09 Clear CLR 25 24     95%   26 1017.3        
Oct 04 18:35 Calm 16.09 Clear CLR 25 24     92%   26 1017.3        
Oct 04 18:15 Calm 16.09 Clear CLR 27 24     87%   29 1017.3        
Oct 04 17:55 Calm 16.09 Clear CLR 29 23     70%   32 1017.3        
Oct 04 17:35 Calm 16.09 Clear CLR 31 21     57%   33 1017.3        
Oct 04 17:15 Calm 16.09 Clear CLR 31 20     53%   33 1016.9        
Oct 04 16:55 Calm 16.09 Clear CLR 31 20     51%   33 1017.3        
Oct 04 16:35 Calm 16.09 Clear CLR 32 20     50%   34 1017.3        
Oct 04 16:15 Calm 16.09 Partly Cloudy SCT050 31 20     51%   34 1017.3        
Oct 04 15:55 E 5 16.09 Mostly Cloudy SCT050 BKN065 BKN090 32 20     51%   34 1017.6        
Oct 04 15:35 Calm 16.09 Partly Cloudy SCT065 SCT090 32 20     50%   34 1017.6        
Oct 04 15:15 Calm 16.09 Clear CLR 32 20     50%   34 1018        
Oct 04 14:55 Calm 16.09 Partly Cloudy SCT046 31 20     52%   34 1018        
Oct 04 14:35 Calm 16.09 Mostly Cloudy BKN046 32 21     53%   35 1018.3        
Oct 04 14:15 Calm 16.09 Partly Cloudy SCT043 SCT080 31 20     52%   33 1018.6        
Oct 04 13:55 Calm 16.09 Mostly Cloudy SCT043 BKN080 31 21     55%   33 1018.6        
Oct 04 13:35 Calm 16.09 Mostly Cloudy BKN043 BKN050 30 21     57%   33 1019        
Oct 04 13:15 NE 5 16.09 Cloudy BKN045 OVC050 32 21     52%   34 1019.3        
Oct 04 12:55 S 5 16.09 Cloudy BKN041 BKN049 OVC060 31 21     55%   33 1019.3        
Oct 04 12:35 S 5 16.09 Partly Cloudy SCT039 SCT050 SCT060 31 21     56%   34 1019.7        
Oct 04 12:15 Calm 16.09 Clear CLR 30 21     56%   33 1020        
Oct 04 11:55 Calm 16.09 Partly Cloudy SCT036 30 21     59%   33 1020.3        
Oct 04 11:35 Calm 16.09 Clear CLR 30 21     60%   32 1020.3        
Oct 04 11:15 Calm 16.09 Clear CLR 29 21     61%   32 1020.7        
Oct 04 10:55 Calm 16.09 Clear CLR 29 21     62%   31 1020.7        
Oct 04 10:35 Calm 16.09 Clear CLR 29 22     66%   31 1021        
Oct 04 10:15 Calm 16.09 Clear CLR 28 23     71%   32 1021        
Oct 04 09:55 Calm 16.09 Clear CLR 27 23     77%   30 1021.3        
Oct 04 09:35 Calm 16.09 Clear CLR 26 23     82%   28 1021.3        
Oct 04 09:15 Calm 16.09 Clear CLR 25 22     84%   26 1021.3        
Oct 04 08:55 Calm 16.09 Clear CLR 25 23     89%   26 1021.3        
Oct 04 08:35 Calm 16.09 Clear CLR 24 22     94%   24 1021        
Oct 04 08:15 Calm 16.09 Clear CLR 23 22     96%   23 1020.7        
Oct 04 07:55 Calm 16.09 Clear CLR 21 21     100%   22 1020.3        
Oct 04 07:35 Calm 16.09 Clear CLR 20 20     100%     1020.3        
Oct 04 07:15 Calm 16.09 Clear CLR 19 19     100%     1020.3        
Oct 04 06:55 Calm 16.09 Clear CLR 19 19     100%     1020        
Oct 04 06:35 Calm 11.27 Clear CLR 19 19     100%     1020        
Oct 04 06:15 Calm 16.09 Clear CLR 20 20     100%     1019.7        
Oct 04 05:55 Calm 16.09 Clear CLR 20 20     100%     1019.7        
Oct 04 05:35 Calm 16.09 Clear CLR 20 20     100%     1019.3        
Oct 04 05:15 Calm 16.09 Clear CLR 20 20     100%     1019.3        
Oct 04 04:55 Calm 16.09 Clear CLR 20 20     100%     1019        
Oct 04 04:35 Calm 16.09 Clear CLR 20 20     100%     1018.6        
Oct 04 04:15 Calm 16.09 Clear CLR 20 20     100%     1018.3        
Oct 04 03:55 Calm 16.09 Clear CLR 20 20     100%     1018.3        
Sep 25 09:35 SSE 5 16.09 Partly Cloudy SCT010 26 24     90%   28 1019.7        
Sep 25 09:15 ESE 5 16.09 Mostly Cloudy BKN006 26 24     91%   26 1019.7        
Sep 25 08:55 SSE 8 16.09 Cloudy OVC006 25 24     96%   26 1019.7        
Sep 25 08:35 ESE 9 16.09 Mostly Cloudy BKN006 BKN075 24 24     98%   25 1019.7        
Sep 25 08:15 Calm 16.09 Mostly Cloudy SCT006 BKN075 23 23     100%   24 1019.7        
Sep 25 07:55 Calm 16.09 Partly Cloudy SCT065 22 22     100%   23 1019.7        
May 15 12:15 ESE 9 16.09 Mostly Cloudy BKN039 BKN046 29 19     54%   30 1014.6        
May 15 11:15 ESE 13 16.09 Partly Cloudy SCT035 SCT120 28 19     59%   29 1015.2        
May 15 03:55 Calm 16.09 Clear CLR 19 18     98%     1014.6        
May 15 02:15 Calm 16.09 Clear CLR 19 19     99%     1013.9        
Notice The following observation data may not be complete
May 14 14:35   16.09 Partly Cloudy SCT080          %              
May 14 06:55 Calm 16.09 Clear CLR 17 17     98%     1016.6        
May 13 19:15 Calm 16.09 Clear CLR 27 18     59%   28 1015.9        
May 13 13:55 NW 8 16.09 Clear CLR 33 14     33%   32 1018.3        
May 13 07:55 Calm 16.09 Clear CLR 22 15     67%   22 1020        
Notice The following observation data may not be complete
May 13 06:55 Calm 16.09 Clear CLR   16      %     1019.7        
May 12 15:35 NE 5 16.09 Clear CLR 33 13     30%   32 1018.6        
May 12 13:15 Calm 16.09 Clear CLR 31 11     28%   30 1020        
May 12 08:55 Calm 16.09 Clear CLR 24 16     62%   24 1021.7        
May 12 03:35 Calm 16.09 Clear CLR 15 15     98%     1019        
May 12 02:55 Calm 16.09 Clear   15 15     99%     1018.6        
May 12 00:35 Calm 16.09 Clear CLR 17 16     93%     1019        
Notice The following observation data may not be complete
May 11 21:35 Calm 16.09 Clear CLR   18      %     1018.6        
Notice The following observation data may not be complete
May 11 20:55 Calm 16.09 Clear CLR   19      %     1018.3        
May 11 15:15 S 5 16.09 Clear CLR 31 14     37%   31 1018        
May 11 10:55 W 5 16.09 Clear CLR 28 18     55%   29 1021        
Jun 12 07:15 ENE 5 16.09 Partly Cloudy SCT011 SCT019 23 22     95%   24 1020.7        
Jun 12 04:55 Calm 16.09 Clear CLR 21 21     100%     1019.7        
Notice The following observation data may not be complete
Jun 12 03:35   16.09 Clear CLR          %              
Jun 12 02:55 Calm 16.09 Clear CLR 22 22     100%   22 1019.7        
Jun 12 02:35 Calm 16.09 Partly Cloudy SCT080 22 22     100%   23 1019.7        
Jun 11 22:55 Calm 16.09 Partly Cloudy SCT100 24 23     92%   25 1020.3        
Notice The following observation data may not be complete
Jun 11 22:15   16.09 Clear CLR          %              
Jun 11 18:15 Calm 16.09 Clear CLR 27 22     75%   29 1018        
Jun 11 14:35 E 17 16.09 Partly Cloudy SCT050 SCT065 32 21     52%   35 1019        
Jun 11 11:55 SE 15 16.09 Partly Cloudy SCT038 30 21     59%   33 1020.3        
Jun 11 02:35 Calm 16.09 Partly Cloudy SCT055 SCT065 19 18     97%     1018        
Jun 10 18:35 SE 8 16.09 Partly Cloudy SCT080 29 18     51%   30 1016.3        
Jun 10 12:55 SSE 9 16.09 Partly Cloudy SCT055 SCT075 28 16     47%   29 1018.3        
Jun 10 11:15 S 8 16.09 Clear CLR 29 17     48%   29 1018.6        
Jun 10 08:15 Calm 16.09 Clear CLR 24 20     81%   24 1018        
Jun 10 03:55 Calm 16.09 Mostly Cloudy SCT065 BKN075 19 18     96%     1015.6        
Notice The following observation data may not be complete
Jun 09 22:35   16.09 Mostly Cloudy BKN060 BKN075          %              
Jun 09 16:55 Calm 16.09 Partly Cloudy SCT075 29 15     43%   29 1012.9        
Jun 09 06:15 Calm 16.09 Clear CLR 16 16     100%     1013.6        
Notice The following observation data may not be complete
Jun 09 02:35   16.09 Clear CLR          %              
Jun 08 13:55 Calm 16.09 Mostly Cloudy SCT060 SCT070 BKN080 26 15     50%   26 1011.9        
Jun 08 07:55 Calm 16.09 Partly Cloudy SCT002 21 16     75%     1012.5        
Jun 08 07:15 Calm 16.09 Clear CLR 18 15     82%     1012.5        
Jun 08 03:15 Calm 16.09 Mostly Cloudy BKN060 18 14     76%     1010.2        
Jun 07 22:35 N 5 16.09 Cloudy SCT060 OVC090 22 16     72%   22 1010.8        
Jun 07 15:15 Calm 16.09 Cloudy BKN039 BKN044 OVC085 27 20     68%   29 1007.8        
Jun 07 14:55 E 21 16.09 Mostly Cloudy SCT037 BKN043 BKN048 28 21     65%   30 1007.8        
Jun 07 10:55 ENE 15 16.09 Clear   26 20     67%   27 1008.1        
Jun 07 07:35 NNE 5 16.09 Clear CLR 21 19     89%     1008.1        
Notice The following observation data may not be complete
Jun 06 08:35   16.09 Cloudy OVC006          %              
Notice The following observation data may not be complete
Jun 06 06:35   16.09 Cloudy SCT006 BKN024 OVC110          %              
Jun 05 15:15 S 8 16.09 Partly Cloudy SCT033 SCT060 SCT100 24 22     90%   25 1008.8        
Jun 05 14:35 S 8 16.09 Light Rain BKN100 BKN120 24 22     89%   25 1009.5